Date String (YYYY-MM-DD hh:mm:ss) UTC,Instrument flags,absolute air pressure of the measurement (hPa),sample flow rate (lpm),inlet stack bypass flow (lpm),air temperature of the measurement (°C),ambient temperature measured by the external sensor (°C),aerosol sample conditioner tube jacket temperature (°C),OPC LED temperature (°C),internal box temperature (°C),relative humidity of the measurement (%),span deviation,mass concentration of particles derived from Lorenz-Mie calculation of OPC scattering (μg/m³),mass concentration of particles derived from Lorenz-Mie calculation of OPC scattering (μg/m³),mass concentration of particles derived from Lorenz-Mie calculation of OPC scattering (μg/m³)
DateTimeUTC,F1_M11,P_M11,Q1_M11,Q2_M11,T1_M11,T2_M11,T3_M11,T4_M11,T5_M11,U1_M11,ZSPAN_M11,X0_M11,X2_M11,X1_M11
2024-04-21 11:00:00,SystemResetWarning,0836.2,5.00,000.00,018.3,017.6,000.0,026.9,020.0,024.7,-000.2,0012.57,0008.90,0008.62
2024-04-21 11:01:00,SystemResetWarning,0836.2,5.01,000.00,018.3,017.6,000.0,027.0,020.0,025.6,-000.1,0012.58,0008.94,0008.67
2024-04-21 11:02:00,SystemResetWarning,0836.2,5.01,000.00,018.4,018.1,000.0,027.0,020.4,024.7,0000.1,0012.29,0008.95,0008.70
2024-04-21 11:03:00,SystemResetWarning,0836.2,4.99,000.00,018.6,018.8,000.0,027.1,020.8,024.1,0000.4,0012.29,0008.97,0008.72
2024-04-21 11:04:00,SystemResetWarning,0836.2,4.99,000.00,018.7,018.9,000.0,027.1,020.8,023.8,0000.5,0012.05,0008.97,0008.71
2024-04-21 11:05:00,SystemResetWarning,0836.2,5.00,000.00,018.7,018.7,000.0,027.0,020.7,023.7,0000.7,0012.08,0008.97,0008.71
2024-04-21 11:06:00,SystemResetWarning,0836.2,5.00,000.00,018.7,018.5,000.0,027.0,020.6,023.7,0000.8,0011.65,0008.94,0008.69
2024-04-21 11:07:00,SystemResetWarning,0836.2,5.01,000.00,018.7,018.4,000.0,027.0,020.4,023.6,0000.9,0011.64,0008.90,0008.64
2024-04-21 11:08:00,SystemResetWarning,0836.2,5.00,000.00,018.6,018.2,000.0,027.0,020.4,023.6,0001.0,0011.53,0008.82,0008.57
2024-04-21 11:09:00,SystemResetWarning,0836.2,5.00,000.00,018.6,018.1,000.0,027.0,020.3,023.6,0001.0,0011.44,0008.73,0008.48
2024-04-21 11:10:00,SystemResetWarning,0836.2,4.99,000.00,018.6,018.0,000.0,027.0,020.2,023.7,0001.2,0011.34,0008.63,0008.39
2024-04-21 11:11:00,SystemResetWarning,0836.2,4.99,000.00,018.5,017.9,000.0,027.0,020.2,023.8,0001.2,0011.19,0008.51,0008.29
2024-04-21 11:12:00,SystemResetWarning,0836.2,5.00,000.00,018.5,017.9,000.0,027.0,020.1,023.8,0001.2,0011.17,0008.47,0008.23
2024-04-21 11:13:00,SystemResetWarning,0836.2,5.01,000.00,018.5,017.8,000.0,027.0,020.1,023.8,0001.5,0011.14,0008.45,0008.22
2024-04-21 11:14:00,SystemResetWarning,0836.2,5.01,000.00,018.5,017.8,000.0,027.0,020.1,023.8,0001.7,0011.15,0008.43,0008.21
2024-04-21 11:15:00,SystemResetWarning,0836.2,5.00,000.00,018.4,017.8,000.0,027.0,020.1,023.8,0001.5,0011.16,0008.42,0008.19
2024-04-21 11:16:00,SystemResetWarning,0836.2,5.00,000.00,018.4,017.7,000.0,027.0,020.0,023.9,0001.2,0010.80,0008.39,0008.16
2024-04-21 11:17:00,SystemResetWarning,0836.2,4.99,000.00,018.4,017.7,000.0,027.0,020.0,023.8,0001.2,0010.64,0008.37,0008.17
2024-04-21 11:18:00,SystemResetWarning,0836.2,4.99,000.00,018.4,017.6,000.0,027.0,020.0,023.8,0001.5,0010.69,0008.41,0008.20
2024-04-21 11:19:00,SystemResetWarning,0836.2,4.99,000.00,018.3,017.6,000.0,027.0,020.0,023.8,0001.4,0010.76,0008.45,0008.24
2024-04-21 11:20:00,SystemResetWarning,0836.2,5.01,000.00,018.3,017.6,000.0,027.0,020.0,023.8,0001.3,0010.81,0008.48,0008.28
2024-04-21 11:21:00,SystemResetWarning,0836.2,5.01,000.00,018.3,017.6,000.0,027.0,020.0,023.8,0001.0,0010.84,0008.54,0008.34
2024-04-21 11:22:00,SystemResetWarning,0836.2,5.00,000.00,018.3,017.6,000.0,027.0,020.0,023.8,0001.0,0010.93,0008.61,0008.41
2024-04-21 11:23:00,SystemResetWarning,0836.2,5.00,000.00,018.3,017.6,000.0,027.0,020.0,023.9,0000.7,0011.00,0008.62,0008.44
2024-04-21 11:24:00,SystemResetWarning,0836.2,5.00,000.00,018.3,017.6,000.0,027.0,020.0,023.8,0000.3,0011.72,0008.65,0008.45
2024-04-21 11:25:00,SystemResetWarning,0836.2,4.99,000.00,018.3,017.6,000.0,026.9,020.0,023.9,0000.1,0011.90,0008.70,0008.48
2024-04-21 11:26:00,SystemResetWarning,0836.2,5.00,000.00,018.3,017.6,000.0,026.9,020.0,023.9,0000.2,0011.91,0008.73,0008.52
2024-04-21 11:27:00,SystemResetWarning,0836.1,5.01,000.00,018.3,017.6,000.0,026.9,020.0,023.8,0000.2,0011.95,0008.76,0008.56
2024-04-21 11:28:00,SystemResetWarning,0836.2,5.00,000.00,018.3,017.6,000.0,027.0,020.0,023.7,0000.1,0012.08,0008.82,0008.59
2024-04-21 11:29:00,SystemResetWarning,0836.1,5.00,000.00,018.2,017.5,000.0,027.0,020.0,023.6,0000.1,0012.14,0008.86,0008.60
2024-04-21 11:30:00,SystemResetWarning,0836.1,5.00,000.00,018.2,017.6,000.0,027.0,020.0,023.6,0000.1,0012.12,0008.86,0008.61
2024-04-21 11:31:00,SystemResetWarning,0836.1,5.01,000.00,018.2,017.5,000.0,026.9,020.0,023.6,0000.4,0012.12,0008.88,0008.63
2024-04-21 11:32:00,SystemResetWarning,0836.1,5.01,000.00,018.2,017.6,000.0,027.0,020.0,023.5,0000.7,0012.09,0008.86,0008.61
2024-04-21 11:33:00,SystemResetWarning,0836.1,5.00,000.00,018.3,018.0,000.0,027.0,020.3,023.4,0000.6,0012.05,0008.81,0008.56
2024-04-21 11:34:00,SystemResetWarning,0836.1,5.00,000.00,018.5,018.7,000.0,027.1,020.7,023.1,0000.8,0011.99,0008.76,0008.51
2024-04-21 11:35:00,SystemResetWarning,0836.1,4.99,000.00,018.7,018.8,000.0,027.1,020.8,022.8,0000.9,0011.35,0008.71,0008.46
2024-04-21 11:36:00,SystemResetWarning,0836.1,4.99,000.00,018.7,018.6,000.0,027.0,020.6,022.8,0000.7,0011.07,0008.64,0008.39
2024-04-21 11:37:00,SystemResetWarning,0836.1,5.02,000.00,018.7,018.4,000.0,027.0,020.5,022.7,0000.8,0011.03,0008.59,0008.33
2024-04-21 11:38:00,SystemResetWarning,0836.0,5.01,000.00,018.6,018.3,000.0,027.0,020.4,022.7,0001.0,0011.04,0008.53,0008.27
2024-04-21 11:39:00,SystemResetWarning,0836.1,4.99,000.00,018.6,018.2,000.0,027.0,020.3,022.6,0001.0,0010.90,0008.43,0008.20
2024-04-21 11:40:00,SystemResetWarning,0836.1,4.98,000.00,018.6,018.1,000.0,027.0,020.3,022.6,0000.9,0010.77,0008.32,0008.11
2024-04-21 11:41:00,SystemResetWarning,0836.1,5.01,000.00,018.6,018.0,000.0,027.0,020.2,022.6,0001.1,0010.69,0008.22,0008.02
2024-04-21 11:42:00,SystemResetWarning,0836.1,5.01,000.00,018.5,018.0,000.0,027.0,020.2,022.6,0001.1,0010.57,0008.11,0007.91
2024-04-21 11:43:00,SystemResetWarning,0836.1,4.99,000.00,018.5,017.9,000.0,027.0,020.1,022.7,0000.8,0010.46,0008.01,0007.81
2024-04-21 11:44:00,SystemResetWarning,0836.1,4.99,000.00,018.5,017.8,000.0,027.0,020.1,022.7,0001.1,0010.38,0007.95,0007.75
2024-04-21 11:45:00,SystemResetWarning,0836.1,5.00,000.00,018.4,017.8,000.0,027.0,020.1,022.6,0001.0,0010.36,0007.91,0007.71
2024-04-21 11:46:00,SystemResetWarning,0836.1,5.00,000.00,018.4,017.7,000.0,027.0,020.0,022.6,0001.0,0010.25,0007.81,0007.61
2024-04-21 11:47:00,SystemResetWarning,0836.1,5.00,000.00,018.4,017.6,000.0,027.0,020.0,022.7,0001.0,0010.13,0007.72,0007.53
2024-04-21 11:48:00,SystemResetWarning,0836.1,5.00,000.00,018.3,017.6,000.0,027.0,020.0,022.7,0000.8,0010.02,0007.63,0007.46
2024-04-21 11:49:00,SystemResetWarning,0836.1,5.00,000.00,018.3,017.6,000.0,027.0,020.0,022.7,0000.6,0009.92,0007.57,0007.39
2024-04-21 11:50:00,SystemResetWarning,0836.1,5.00,000.00,018.3,017.6,000.0,027.0,020.0,022.7,0000.5,0009.90,0007.53,0007.34
2024-04-21 11:51:00,SystemResetWarning,0836.1,5.00,000.00,018.3,017.5,000.0,027.0,020.0,022.7,0000.7,0009.90,0007.46,0007.26
2024-04-21 11:52:00,SystemResetWarning,0836.2,5.00,000.00,018.3,017.5,000.0,027.0,020.0,022.6,0000.5,0009.75,0007.37,0007.20
2024-04-21 11:53:00,SystemResetWarning,0836.2,5.00,000.00,018.3,017.5,000.0,027.0,020.0,022.6,0000.5,0009.72,0007.33,0007.15
2024-04-21 11:54:00,SystemResetWarning,0836.2,4.99,000.00,018.3,017.5,000.0,027.0,020.0,022.6,0000.5,0009.70,0007.30,0007.10
2024-04-21 11:55:00,SystemResetWarning,0836.2,4.99,000.00,018.3,017.5,000.0,027.0,020.0,022.6,0000.2,0009.69,0007.27,0007.05
2024-04-21 11:56:00,SystemResetWarning,0836.2,5.00,000.00,018.3,017.5,000.0,027.0,020.0,022.6,-000.0,0009.62,0007.19,0006.98
2024-04-21 11:57:00,SystemResetWarning,0836.2,5.00,000.00,018.3,017.5,000.0,027.0,020.0,022.5,-000.0,0009.58,0007.15,0006.94
2024-04-21 11:58:00,SystemResetWarning,0836.2,4.99,000.00,018.3,017.5,000.0,026.9,020.0,022.5,0000.1,0009.53,0007.11,0006.89
2024-04-21 11:59:00,SystemResetWarning,0836.2,5.00,000.00,018.2,017.6,000.0,026.9,020.0,022.5,0000.3,0009.45,0007.05,0006.84
